FW0924 Weather Reports


time (UTC)temp
C
wind
direction
speed
KPH
gust
KPH
rain 1hr
cm
rain 24hr
cm
rain mn
cm
humidity
%
barometer
mb
20260831040728 24 0.0 1.6 0.00 0.00 0.00 46 1028.5
20260831040107 24 0.0 6.4 0.00 0.00 0.00 44 1028.7
20260831035646 25 90 0.0 6.4 0.00 0.00 0.00 43 1028.6
20260831034623 25 0.0 3.2 0.00 0.00 0.00 38 1028.6
20260831034142 26 0.0 1.6 0.00 0.00 0.00 38 1028.8
20260831033100 26 0.0 1.6 0.00 0.00 0.00 36 1028.8
20260831032659 25 0.0 0.0 0.00 0.00 0.00 37 1028.9
20260831032200 25 0.0 1.6 0.00 0.00 0.00 38 1028.9
20260831031557 25 0.0 0.0 0.00 0.00 0.00 38 1029.0
20260831031036 25 0.0 0.0 0.00 0.00 0.00 41 1029.1
20260831030554 24 0.0 0.0 0.00 0.00 0.00 42 1029.2
20260831030053 24 0.0 0.0 0.00 0.00 0.00 42 1029.2
20260831025713 24 0.0 3.2 0.00 0.00 0.00 43 1029.3
20260831025214 24 0.0 0.0 0.00 0.00 0.00 43 1029.2
20260831024631 24 0.0 1.6 0.00 0.00 0.00 42 1029.3
20260831024049 25 0 0.0 3.2 0.00 0.00 0.00 44 1029.4
20260831023548 24 0.0 1.6 0.00 0.00 0.00 44 1029.5
20260831023027 24 0.0 1.6 0.00 0.00 0.00 44 1029.5
20260831022045 24 0.0 1.6 0.00 0.00 0.00 46 1029.7
20260831021604 23 0.0 1.6 0.00 0.00 0.00 47 1029.8
20260831021203 23 0.0 1.6 0.00 0.00 0.00 47 1029.9
20260831020621 23 0.0 0.0 0.00 0.00 0.00 47 1030.0
20260831020201 23 0.0 0.0 0.00 0.00 0.00 47 1030.1
20260831015519 23 0.0 3.2 0.00 0.00 0.00 49 1030.2
20260831014618 23 0 0.0 3.2 0.00 0.00 0.00 51 1030.5
20260831014116 22 0.0 1.6 0.00 0.00 0.00 52 1030.5
20260831013715 21 0.0 0.0 0.00 0.00 0.00 53 1030.5
20260831013133 21 0.0 1.6 0.00 0.00 0.00 53 1030.7
20260831012713 22 0.0 1.6 0.00 0.00 0.00 52 1030.8
20260831012252 22 0.0 3.2 0.00 0.00 0.00 51 1030.8
20260831011712 23 0.0 3.2 0.00 0.00 0.00 52 1030.9
20260831011129 23 0.0 1.6 0.00 0.00 0.00 53 1030.9
20260831010708 23 0.0 1.6 0.00 0.00 0.00 54 1031.0
20260831010127 22 0.0 1.6 0.00 0.00 0.00 53 1031.0
20260831005646 22 0.0 1.6 0.00 0.00 0.00 54 1031.0
20260831005125 21 0.0 3.2 0.00 0.00 0.00 56 1031.1
20260831004643 21 0.0 0.0 0.00 0.00 0.00 56 1031.1
20260831004243 21 0.0 0.0 0.00 0.00 0.00 55 1031.3
20260831003601 22 0.0 0.0 0.00 0.00 0.00 58 1031.2
20260831002720 21 0.0 0.0 0.00 0.00 0.00 59 1031.2
20260831001657 18 0.0 1.6 0.00 0.00 0.00 72 1031.2
20260831001239 12 0.0 1.6 0.00 0.00 0.00 94 1031.1
20260831000654 -17 0.0 0.0 0.00 0.00 0.00 1031.1
20260831000233 -17 0.0 0.0 0.00 0.00 0.00 1031.1
20260830235552 -17 0.0 0.0 0.00 0.00 0.00 1031.0
20260830235051 -17 0.0 0.0 0.00 0.00 0.00 1031.0
20260830234650 -17 0.0 0.0 0.00 0.00 0.00 1031.1
20260830234129 -17 0.0 0.0 0.00 0.00 0.00 1031.1
20260830233548 -17 0.0 0.0 0.00 0.00 0.00 1031.2
20260830233047 -17 0.0 0.0 0.00 0.00 0.00 1031.1
20260830232606 -17 0.0 0.0 0.00 0.00 0.00 1031.1
20260830232104 -17 0.0 0.0 0.00 0.00 0.00 1031.2
20260830231603 -17 0.0 0.0 0.00 0.00 0.00 1031.1
20260830230641 -17 0.0 0.0 0.00 0.00 0.00 1031.1
20260830230040 -17 0.0 0.0 0.00 0.00 0.00 1031.1
20260830225058 -17 0.0 0.0 0.00 0.00 0.00 1031.1
20260830224637 -17 0.0 0.0 0.00 0.00 0.00 1031.1
20260830224056 -17 0.0 0.0 0.00 0.00 0.00 1031.1
20260830223635 -17 0.0 0.0 0.00 0.00 0.00 1031.1
20260830223054 -17 0.0 0.0 0.00 0.00 0.00 1031.2
20260830222613 -17 0.0 0.0 0.00 0.00 0.00 1031.1
20260830222051 -17 0.0 0.0 0.00 0.00 0.00 1031.1
20260830221630 -17 0.0 0.0 0.00 0.00 0.00 1031.1
20260830221211 -17 0.0 0.0 0.00 0.00 0.00 1031.1
20260830220629 -17 0.0 0.0 0.00 0.00 0.00 1030.9
20260830220208 -17 0.0 0.0 0.00 0.00 0.00 1030.9
20260830215526 -17 0.0 0.0 0.00 0.00 0.00 1030.8
20260830215025 -17 0.0 0.0 0.00 0.00 0.00 1030.7
20260830214624 -17 0.0 0.0 0.00 0.00 0.00 1030.7
20260830214203 -17 0.0 0.0 0.00 0.00 0.00 1030.6
20260830213702 -17 0.0 0.0 0.00 0.00 0.00 1030.7
20260830213020 -17 0.0 0.0 0.00 0.00 0.00 1030.6
20260830212559 -17 0.0 0.0 0.00 0.00 0.00 1030.7
20260830212038 -17 0.0 0.0 0.00 0.00 0.00 1030.6
20260830211538 -17 0.0 0.0 0.00 0.00 0.00 1030.6
20260830211056 -17 0.0 0.0 0.00 0.00 0.00 1030.6
20260830210716 -17 0.0 0.0 0.00 0.00 0.00 1030.5
20260830210134 -17 0.0 0.0 0.00 0.00 0.00 1030.5
20260830205653 -17 0.0 0.0 0.00 0.00 0.00 1030.4
20260830204631 -17 0.0 0.0 0.00 0.00 0.00 1030.3
20260830204253 -17 0.0 0.0 0.00 0.00 0.00 1030.3
20260830203649 -17 0.0 0.0 0.00 0.00 0.00 1030.3
20260830203127 -17 0.0 0.0 0.00 0.00 0.00 1030.3
20260830202646 -17 0.0 0.0 0.00 0.00 0.00 1030.2
20260830202147 -17 0.0 0.0 0.00 0.00 0.00 1030.2
20260830200121 -17 0.0 0.0 0.00 0.00 0.00 1030.0
20260830195700 -17 0.0 0.0 0.00 0.00 0.00 1029.9
20260830195222 -17 0.0 0.0 0.00 0.00 0.00 1029.9
20260830194557 -17 0.0 0.0 0.00 0.00 0.00 1029.8
20260830193655 -17 0.0 0.0 0.00 0.00 0.00 1029.7
20260830192553 -17 0.0 0.0 0.00 0.00 0.00 1029.5
20260830192052 -17 0.0 0.0 0.00 0.00 0.00 1029.7
20260830191632 -17 0.0 0.0 0.00 0.00 0.00 1029.6
20260830191111 -17 0.0 0.0 0.00 0.00 0.00 1029.5
20260830190630 -17 0.0 0.0 0.00 0.00 0.00 1029.5
20260830190109 -17 0.0 0.0 0.00 0.00 0.00 1029.5
20260830185647 -17 0.0 0.0 0.00 0.00 0.00 1029.5
20260830185146 -17 0.0 0.0 0.00 0.00 0.00 1029.5
20260830184544 -17 0.0 0.0 0.00 0.00 0.00 1029.5
20260830182641 -17 0.0 0.0 0.00 0.00 0.00 1029.7
20260830182059 -17 0.0 0.0 0.00 0.00 0.00 1029.7
20260830181638 -17 0.0 0.0 0.00 0.00 0.00 1029.9
20260830181139 -17 0.0 0.0 0.00 0.00 0.00 1029.9
20260830180536 -17 0.0 0.0 0.00 0.00 0.00 1029.9
20260830175614 -17 0.0 0.0 0.00 0.00 0.00 1029.8
20260830175032 -17 0.0 0.0 0.00 0.00 0.00 1029.8
20260830174531 -17 0.0 0.0 0.00 0.00 0.00 1029.8
20260830173609 -17 0.0 0.0 0.00 0.00 0.00 1029.9
20260830173050 -17 0.0 0.0 0.00 0.00 0.00 1029.9
20260830172627 -17 0.0 0.0 0.00 0.00 0.00 1029.9
20260830172126 -17 0.0 0.0 0.00 0.00 0.00 1030.0
20260830171525 -17 0.0 0.0 0.00 0.00 0.00 1030.0
20260830171044 -17 0.0 0.0 0.00 0.00 0.00 1030.2
20260830170623 -17 0.0 0.0 0.00 0.00 0.00 1030.3
20260830170122 -17 0.0 0.0 0.00 0.00 0.00 1030.4
20260830165601 -17 0.0 0.0 0.00 0.00 0.00 1030.3
20260830165201 -17 0.0 0.0 0.00 0.00 0.00 1030.3
20260830164117 -17 0.0 0.0 0.00 0.00 0.00 1030.2
20260830163557 -17 0.0 0.0 0.00 0.00 0.00 1030.2
20260830162754 -17 0.0 0.0 0.00 0.00 0.00 1030.1
20260830162253 -17 0.0 0.0 0.00 0.00 0.00 1030.2
20260830161654 -17 0.0 0.0 0.00 0.00 0.00 1030.3
20260830161252 -17 0.0 0.0 0.00 0.00 0.00 1030.3
20260830160710 -17 0.0 0.0 0.00 0.00 0.00 1030.3
20260830160129 -17 0.0 0.0 0.00 0.00 0.00 1030.5
20260830155708 -17 0.0 0.0 0.00 0.00 0.00 1030.4
20260830155128 -17 0.0 0.0 0.00 0.00 0.00 1030.4
20260830154706 -17 0.0 0.0 0.00 0.00 0.00 1030.4
20260830154205 -17 0.0 0.0 0.00 0.00 0.00 1030.5
20260830153643 -17 0.0 0.0 0.00 0.00 0.00 1030.6
20260830153142 -17 0.0 0.0 0.00 0.00 0.00 1030.6
20260830152240 -17 0.0 0.0 0.00 0.00 0.00 1030.6
20260830151558 -17 0.0 0.0 0.00 0.00 0.00 1030.6
20260830150657 -17 0.0 0.0 0.00 0.00 0.00 1030.6
20260830150236 -17 0.0 0.0 0.00 0.00 0.00 1030.7
20260830145554 -17 0.0 0.0 0.00 0.00 0.00 1030.8
20260830144653 -17 0.0 0.0 0.00 0.00 0.00 1030.8
20260830144131 -17 0.0 0.0 0.00 0.00 0.00 1030.9
20260830142107 -17 0.0 0.0 0.00 0.00 0.00 1030.9
20260830141646 -17 0.0 0.0 0.00 0.00 0.00 1030.8
20260830141105 -17 0.0 0.0 0.00 0.00 0.00 1030.8
20260830140643 -17 0.0 0.0 0.00 0.00 0.00 1030.8
20260830140042 -17 0.0 0.0 0.00 0.00 0.00 1030.8
20260830135641 -17 0.0 0.0 0.00 0.00 0.00 1030.7
20260830135100 -17 0.0 0.0 0.00 0.00 0.00 1030.8
20260830134619 -17 0.0 0.0 0.00 0.00 0.00 1030.8
20260830133537 -17 0.0 0.0 0.00 0.00 0.00 1030.9
20260830133056 -17 0.0 0.0 0.00 0.00 0.00 1030.9
20260830132635 -17 0.0 0.0 0.00 0.00 0.00 1030.9
20260830132114 -17 0.0 0.0 0.00 0.00 0.00 1030.9
20260830131614 -17 0.0 0.0 0.00 0.00 0.00 1030.9
20260830131052 -17 0.0 0.0 0.00 0.00 0.00 1030.9
20260830130049 -17 0.0 0.0 0.00 0.00 0.00 1030.8
20260830125628 -17 0.0 0.0 0.00 0.00 0.00 1030.7
20260830125047 -17 0.0 0.0 0.00 0.00 0.00 1030.7
20260830124546 -17 0.0 0.0 0.00 0.00 0.00 1030.7
20260830124147 -17 0.0 0.0 0.00 0.00 0.00 1030.7
20260830123524 -17 0.0 0.0 0.00 0.00 0.00 1030.6
20260830123123 -17 0.0 0.0 0.00 0.00 0.00 1030.7
20260830122602 -17 0.0 0.0 0.00 0.00 0.00 1030.6
20260830122042 -17 0.0 0.0 0.00 0.00 0.00 1030.6
20260830121620 -17 0.0 0.0 0.00 0.00 0.00 1030.7
20260830121038 -17 0.0 0.0 0.00 0.00 0.00 1030.7
20260830120538 -17 0.0 0.0 0.00 0.00 0.00 1030.7
20260830120116 -17 0.0 0.0 0.00 0.00 0.00 1030.7
20260830115715 -17 0.0 0.0 0.00 0.00 0.00 1030.8
20260830115235 -17 0.0 0.0 0.00 0.00 0.00 1030.7
20260830114634 -17 0.0 0.0 0.00 0.00 0.00 1030.7
20260830114113 -17 0.0 0.0 0.00 0.00 0.00 1030.7
20260830113630 -17 0.0 0.0 0.00 0.00 0.00 1030.7
20260830113130 -17 0.0 0.0 0.00 0.00 0.00 1030.6
20260830112608 -17 0.0 0.0 0.00 0.00 0.00 1030.6
20260830112249 -17 0.0 0.0 0.00 0.00 0.00 1030.7
20260830111626 -17 0.0 0.0 0.00 0.00 0.00 1030.5
20260830111126 -17 0.0 0.0 0.00 0.00 0.00 1030.5
20260830110645 -17 0.0 0.0 0.00 0.00 0.00 1030.4
20260830104620 -17 0.0 0.0 0.00 0.00 0.00 1030.5
20260830104121 -17 0.0 0.0 0.00 0.00 0.00 1030.3
20260830103658 -17 0.0 0.0 0.00 0.00 0.00 1030.3
20260830103117 12 0.0 0.0 0.00 0.00 0.00 94 1030.3
20260830102737 12 0.0 0.0 0.00 0.00 0.00 94 1030.2
20260830102216 12 0.0 0.0 0.00 0.00 0.00 94 1030.3
20260830101654 12 0.0 0.0 0.00 0.00 0.00 94 1030.3
20260830101213 12 0.0 0.0 0.00 0.00 0.00 93 1030.2
20260830100551 12 0.0 0.0 0.00 0.00 0.00 93 1030.1
20260830095649 12 0.0 0.0 0.00 0.00 0.00 93 1030.0
20260830095107 12 0.0 0.0 0.00 0.00 0.00 92 1029.8
20260830094646 12 0.0 0.0 0.00 0.00 0.00 91 1029.9
20260830094105 12 0.0 0.0 0.00 0.00 0.00 91 1029.9
20260830093624 12 0.0 0.0 0.00 0.00 0.00 92 1029.9
20260830093123 13 0.0 0.0 0.00 0.00 0.00 92 1029.9
20260830092041 13 0.0 0.0 0.00 0.00 0.00 92 1029.8
20260830091640 13 0.0 0.0 0.00 0.00 0.00 92 1029.9
20260830091220 13 0.0 0.0 0.00 0.00 0.00 91 1029.8
20260830090638 14 0.0 0.0 0.00 0.00 0.00 89 1029.8
20260830090138 14 0.0 0.0 0.00 0.00 0.00 87 1029.8
20260830084153 15 0.0 0.0 0.00 0.00 0.00 85 1029.7
20260830083531 15 0.0 0.0 0.00 0.00 0.00 83 1029.6
20260830083050 15 0.0 0.0 0.00 0.00 0.00 81 1029.5
20260830082709 15 0.0 0.0 0.00 0.00 0.00 80 1029.4
20260830081526 16 0.0 0.0 0.00 0.00 0.00 79 1029.3
20260830081045 16 0.0 0.0 0.00 0.00 0.00 78 1029.2
20260830080624 16 0.0 0.0 0.00 0.00 0.00 76 1029.1
20260830075623 17 0.0 0.0 0.00 0.00 0.00 73 1029.0
20260830075142 17 0.0 0.0 0.00 0.00 0.00 71 1028.9
20260830074620 17 0.0 0.0 0.00 0.00 0.00 71 1028.9
20260830074039 17 0.0 0.0 0.00 0.00 0.00 70 1028.9
20260830073538 18 0.0 0.0 0.00 0.00 0.00 70 1028.9
20260830073038 18 0.0 0.0 0.00 0.00 0.00 68 1028.9
20260830072636 18 0.0 0.0 0.00 0.00 0.00 66 1028.8
20260830072256 19 0.0 0.0 0.00 0.00 0.00 64 1028.9
20260830071714 20 0.0 0.0 0.00 0.00 0.00 62 1028.8
20260830071133 20 0.0 0.0 0.00 0.00 0.00 60 1028.7
20260830070652 20 45 0.0 4.8 0.00 0.00 0.00 59 1028.7
20260830070231 20 0.0 1.6 0.00 0.00 0.00 57 1028.7
20260830065709 21 0.0 1.6 0.00 0.00 0.00 55 1028.7
20260830065128 21 0.0 1.6 0.00 0.00 0.00 54 1028.7
20260830064707 21 0.0 0.0 0.00 0.00 0.00 54 1028.8
20260830064206 21 0.0 0.0 0.00 0.00 0.00 53 1028.7
20260830063224 22 0.0 0.0 0.00 0.00 0.00 51 1028.8
20260830062643 22 0.0 0.0 0.00 0.00 0.00 49 1028.8
20260830062202 22 0.0 0.0 0.00 0.00 0.00 48 1028.8
20260830061621 22 0.0 0.0 0.00 0.00 0.00 47 1028.8
20260830061119 22 0.0 0.0 0.00 0.00 0.00 42 1028.7
20260830060618 22 0.0 0.0 0.00 0.00 0.00 40 1028.7
20260830060159 22 0.0 0.0 0.00 0.00 0.00 39 1028.7
20260830055656 23 0.0 0.0 0.00 0.00 0.00 38 1028.7
20260830055155 22 0.0 0.0 0.00 0.00 0.00 38 1028.8
20260830054112 23 0.0 3.2 0.00 0.00 0.00 35 1028.8
20260830053612 22 0.0 1.6 0.00 0.00 0.00 35 1028.9
20260830053050 23 0.0 1.6 0.00 0.00 0.00 36 1028.8
20260830052549 22 0.0 1.6 0.00 0.00 0.00 36 1028.8
20260830052108 23 0.0 1.6 0.00 0.00 0.00 34 1028.8
20260830051647 23 0.0 1.6 0.00 0.00 0.00 33 1028.9
20260830051207 23 0.0 3.2 0.00 0.00 0.00 32 1028.9
20260830050545 23 0.0 3.2 0.00 0.00 0.00 32 1028.9
20260830045543 22 0.0 0.0 0.00 0.00 0.00 31 1028.9
20260830044621 23 0.0 3.2 0.00 0.00 0.00 32 1028.8
20260830043639 23 0.0 3.2 0.00 0.00 0.00 32 1028.8
20260830043037 23 0.0 3.2 0.00 0.00 0.00 33 1028.8
20260830042135 22 0.0 3.2 0.00 0.00 0.00 32 1028.8
20260830041615 23 0.0 3.2 0.00 0.00 0.00 33 1028.9
20260830041033 23 0.0 1.6 0.00 0.00 0.00 34 1028.9